[[{"header":{"parameterUnit":"m.s-1","parameterCategory":1,"la1":30.2991,"la2":30.254,"lo1":-89.0895,"lo2":-89.0444,"dy":0.0017,"dx":0.0017,"nx":28,"ny":28,"refTime":"2025-04-01T03:00:00:Z","depth":0,"parameterNumber":2,"parameterNumberName":"U-component_of_WINDS"},"data":[0,0,0,0,0,0,0,0,0,0,0,0,0,0,0,0,0,0,0,0,0,0,0,0,0,0,0,0,0,0,0,0,0,0,0,0,0,0,0,0,0,0,0,0,0,0,0,0,0,0,0,0,0,0,0,0,0,0,-5.4093,-5.4094,0,-5.426,-5.4262,-5.4264,-5.4293,-5.4292,-5.429,-5.4289,-5.4458,-5.4464,-5.447,0,0,0,0,0,0,0,0,0,0,0,0,0,-5.3795,-5.38,-5.4092,-5.4094,-5.4097,-5.426,-5.4262,-5.4265,-5.4293,-5.4292,-5.429,-5.4288,-5.4457,-5.4463,-5.447,0,0,0,0,0,0,0,0,0,0,0,0,0,-5.3939,-5.3802,-5.4092,-5.4131,-5.4136,-5.426,-5.4263,-5.4265,-5.4294,-5.4292,-5.4289,-5.4288,-5.4454,-5.4463,-5.4471,-5.4568,0,0,-5.4498,-5.4502,0,0,0,0,0,0,0,0,-5.3931,-5.395,-5.4123,-5.4128,-5.4134,-5.4254,-5.422,-5.4367,-5.4294,-5.4234,-5.4289,-5.4286,-5.4392,-5.4406,-5.4442,-5.4576,-5.4583,-5.4499,-5.4504,-5.4508,-5.451,0,0,0,0,0,0,0,-5.3921,-5.3943,-5.4159,-5.4125,-5.4132,-5.4139,-5.4157,-5.4248,-5.4322,-5.4239,-5.4241,-5.4261,-5.4395,-5.4433,-5.4446,-5.4585,-5.4499,-5.4506,-5.4512,-5.4515,-5.4806,-5.4809,0,0,0,0,0,0,-5.3905,-5.3935,-5.4153,-5.4164,-5.4026,-5.4146,-5.4167,-5.4217,-5.4322,-5.4336,-5.4263,-5.4262,-5.4419,-5.4436,-5.4452,-5.457,-5.4508,-5.4516,-5.4521,-5.4804,-5.4807,-5.481,0,0,0,0,0,0,-5.3898,-5.3924,-5.4147,-5.405,-5.4079,-5.4154,-5.421,-5.4222,-5.426,-5.434,-5.4353,-5.4288,-5.4418,-5.444,-5.4539,-5.4577,-5.452,-5.4528,-5.4801,-5.4805,-5.4808,-5.4809,0,0,0,0,0,0,-5.3889,-5.3921,-5.3959,-5.4051,-5.4084,-5.4231,-5.4213,-5.4227,-5.4276,-5.4276,-5.4367,-5.438,-5.4418,-5.4526,-5.4547,-5.4588,-5.4535,-5.4798,-5.4803,-5.4807,-5.4805,-5.4812,-5.4817,0,0,0,0,0,-5.3879,-5.3952,-5.3961,-5.3987,-5.4133,-5.4233,-5.4252,-5.4295,-5.4279,-5.4317,-5.4368,-5.4377,-5.457,-5.4535,-5.456,-5.4604,-5.4795,-5.4801,-5.4807,-5.4803,-5.4811,-5.4817,0,0,0,0,0,0,-5.3861,-5.3965,-5.3975,-5.4081,-5.4148,-5.4238,-5.4287,-5.4302,-5.4375,-5.4372,-5.4421,-5.4442,-5.4538,-5.4581,-5.4541,-5.4702,-5.4681,-5.4692,-5.467,-5.4678,-5.4684,-5.467,-5.4542,0,0,0,0,0,-5.387,-5.3944,-5.403,-5.4114,-5.4148,-5.4212,-5.4257,-5.4284,-5.4356,-5.4384,-5.4442,-5.4511,-5.4587,-5.4635,-5.4709,-5.4813,-5.4833,-5.4855,-5.4861,-5.4866,-5.4874,-5.4931,-5.4941,-5.4828,-5.4828,-5.4828,0,0,-5.3888,-5.3954,-5.3997,-5.4113,-5.4168,-5.4242,-5.4235,-5.4314,-5.4369,-5.4396,-5.4493,-5.4538,-5.4618,-5.4719,-5.4767,-5.4758,-5.491,-5.4873,-5.4876,-5.4882,-5.4938,-5.4948,-5.4958,-5.4832,-5.4831,-5.483,0,0,-5.3958,-5.4016,-5.4092,-5.4149,-5.4233,-5.4275,-5.4294,-5.4382,-5.4413,-5.4512,-5.4533,-5.46,-5.4729,-5.4785,-5.483,-5.4923,-5.4934,-5.4946,-5.4976,-5.5031,-5.504,-5.5048,-5.508,-5.5091,-5.4955,-5.4955,-5.4955,0,-5.397,-5.4083,-5.413,-5.4208,-5.4258,-5.4287,-5.4364,-5.4416,-5.452,-5.4553,-5.4543,-5.4706,-5.4762,-5.4877,-5.4899,-5.4936,-5.4957,-5.4935,-5.5035,-5.5044,-5.5052,-5.5083,-5.5095,-5.4955,-5.4955,-5.4955,-5.4955,0,-5.4092,-5.417,-5.4222,-5.4322,-5.4378,-5.4455,-5.4513,-5.4564,-5.4588,-5.4631,-5.473,-5.4799,-5.4887,-5.4917,-5.494,-5.5035,-5.5027,-5.5026,-5.5005,-5.5063,-5.5092,-5.5104,-5.4956,-5.4956,-5.4956,-5.4956,0,0,-5.4153,-5.428,-5.4298,-5.4343,-5.4439,-5.45,-5.4579,-5.4667,-5.4709,-5.478,-5.4846,-5.4956,-5.4956,-5.5007,-5.5038,-5.5086,-5.5154,-5.5079,-5.5082,-5.5089,-5.5261,-5.5259,-5.5272,-5.5163,-5.5166,-5.5168,-5.5253,0,-5.4233,-5.4375,-5.4419,-5.4537,-5.4609,-5.4639,-5.4707,-5.4773,-5.4817,-5.4884,-5.4932,-5.5008,-5.5003,-5.5034,-5.5084,-5.5135,-5.5188,-5.513,-5.5223,-5.5226,-5.5199,-5.5287,-5.5286,-5.5363,-5.5265,-5.5267,-5.5269,0,-5.4345,-5.4418,-5.4543,-5.463,-5.4662,-5.4723,-5.4806,-5.4871,-5.4947,-5.4975,-5.5033,-5.5059,-5.5142,-5.5119,-5.5233,-5.5192,-5.5233,-5.5265,-5.5269,-5.5277,-5.5249,-5.5295,-5.5389,-5.5399,-5.5287,-5.5286,-5.5285,0,-5.4374,-5.4505,-5.4596,-5.4635,-5.4739,-5.4781,-5.4826,-5.49,-5.495,-5.5023,-5.5055,-5.5137,-5.5181,-5.5244,-5.5292,-5.5271,-5.5401,-5.5382,-5.5425,-5.5424,-5.5448,-5.5445,-5.5547,-5.548,-5.5479,-5.5479,-5.5479,0,-5.4457,-5.4532,-5.4611,-5.4667,-5.4751,-5.4803,-5.4885,-5.4932,-5.4997,-5.5062,-5.5094,-5.5154,-5.5215,-5.5283,-5.5321,-5.5409,-5.5429,-5.5453,-5.5462,-5.5449,-5.5445,-5.5474,-5.5469,-5.5482,-5.5482,-5.5481,-5.548,0,-5.4503,-5.4559,-5.4661,-5.4752,-5.4776,-5.4834,-5.4912,-5.4967,-5.5012,-5.5094,-5.5116,-5.5187,-5.5269,-5.5324,-5.5429,-5.5454,-5.5549,-5.5558,-5.5523,-5.5527,-5.5566,-5.556,-5.5687,-5.5706,-5.5628,-5.5628,-5.5629,0,-5.4551,-5.4609,-5.4706,-5.4753,-5.4798,-5.4872,-5.4923,-5.4977,-5.5028,-5.5119,-5.5163,-5.5248,-5.5318,-5.5447,-5.5507,-5.5588,-5.5597,-5.5637,-5.5609,-5.5594,-5.5595,-5.559,-5.5595,-5.5639,-5.564,-5.5641,-5.5641,0,-5.4629,-5.4654,-5.4727,-5.4809,-5.4869,-5.4937,-5.5005,-5.5041,-5.5106,-5.5162,-5.5247,-5.5301,-5.5409,-5.5491,-5.5578,-5.5624,-5.5643,-5.565,-5.5663,-5.5649,-5.5626,-5.5637,-5.5532,-5.5646,-5.5645,-5.5645,-5.5645,-5.5644,-5.4676,-5.4729,-5.4805,-5.4885,-5.4942,-5.5005,-5.5061,-5.5113,-5.5185,-5.5277,-5.5304,-5.5392,-5.5467,-5.5584,-5.5632,-5.5701,-5.5697,-5.5718,-5.5722,-5.5726,-5.5725,-5.5617,-5.5718,-5.5718,-5.5718,-5.5717,-5.5717,0,-5.4754,-5.4805,-5.4878,-5.4972,-5.5035,-5.5049,-5.5125,-5.5176,-5.5253,-5.5321,-5.539,-5.5487,-5.5568,-5.5635,-5.5718,-5.5761,-5.5771,-5.578,-5.5776,-5.5787,-5.5725,-5.5703,-5.577,-5.577,-5.577,-5.577,-5.577,-5.577,-5.4801,-5.4891,-5.4926,-5.5044,-5.5095,-5.5181,-5.5223,-5.528,-5.5335,-5.5442,-5.551,-5.5554,-5.5622,-5.571,-5.5785,-5.5803,-5.5831,-5.5838,-5.5857,-5.5797,-5.5791,-5.5785,-5.5765,-5.5844,-5.5844,-5.5913,-5.5913,-5.5914]},{"header":{"parameterUnit":"m.s-1","parameterCategory":1,"la1":30.2991,"la2":30.254,"lo1":-89.0895,"lo2":-89.0444,"dy":0.0017,"dx":0.0017,"nx":28,"ny":28,"refTime":"2025-04-01T03:00:00:Z","depth":0,"parameterNumber":3,"parameterNumberName":"V-component_of_WINDS"},"data":[0,0,0,0,0,0,0,0,0,0,0,0,0,0,0,0,0,0,0,0,0,0,0,0,0,0,0,0,0,0,0,0,0,0,0,0,0,0,0,0,0,0,0,0,0,0,0,0,0,0,0,0,0,0,0,0,0,0,5.6161,5.6162,0,5.6271,5.6272,5.6274,5.6276,5.6274,5.6273,5.6271,5.6381,5.6385,5.639,0,0,0,0,0,0,0,0,0,0,0,0,0,5.5951,5.5955,5.6161,5.6162,5.6164,5.6271,5.6272,5.6274,5.6276,5.6274,5.6272,5.6271,5.638,5.6385,5.639,0,0,0,0,0,0,0,0,0,0,0,0,0,5.605,5.5956,5.6161,5.6178,5.618,5.6271,5.6272,5.6274,5.6276,5.6274,5.6272,5.627,5.6378,5.6384,5.6391,5.6471,0,0,5.641,5.6413,0,0,0,0,0,0,0,0,5.6044,5.6057,5.6174,5.6177,5.618,5.6258,5.6239,5.634,5.6277,5.624,5.6271,5.6269,5.6342,5.6351,5.6376,5.6476,5.648,5.641,5.6414,5.6417,5.6419,0,0,0,0,0,0,0,5.6037,5.6053,5.6204,5.6175,5.6179,5.6179,5.6191,5.6258,5.6301,5.6243,5.6243,5.6256,5.6343,5.637,5.6378,5.6482,5.641,5.6416,5.642,5.6422,5.6656,5.6658,0,0,0,0,0,0,5.6027,5.6047,5.6201,5.6208,5.6106,5.6185,5.6198,5.6235,5.63,5.6308,5.6258,5.6256,5.636,5.6371,5.6382,5.6482,5.6417,5.6423,5.6426,5.6654,5.6657,5.6659,0,0,0,0,0,0,5.6023,5.6041,5.6196,5.6128,5.6147,5.6191,5.6232,5.6238,5.6265,5.6312,5.6319,5.6278,5.6359,5.6373,5.645,5.6486,5.6426,5.6431,5.6651,5.6655,5.6658,5.6681,0,0,0,0,0,0,5.6017,5.6039,5.607,5.6128,5.6151,5.6262,5.6234,5.6241,5.6276,5.6275,5.6332,5.634,5.6358,5.644,5.6456,5.6494,5.6436,5.6648,5.6652,5.6657,5.6678,5.6685,5.6692,0,0,0,0,0,5.6009,5.6071,5.6072,5.609,5.6191,5.6264,5.6277,5.6298,5.6279,5.6311,5.6341,5.6338,5.6479,5.6448,5.6466,5.6506,5.6645,5.6651,5.6656,5.6674,5.6684,5.6692,0,0,0,0,0,0,5.6015,5.6079,5.608,5.6163,5.6208,5.6264,5.6305,5.6307,5.6358,5.6354,5.6378,5.6391,5.6467,5.6494,5.6457,5.6588,5.656,5.6569,5.6568,5.6577,5.6584,5.6576,5.6441,0,0,0,0,0,5.6026,5.6081,5.6134,5.6201,5.6224,5.6261,5.6293,5.6306,5.6354,5.6372,5.6408,5.6454,5.6509,5.6544,5.6597,5.6682,5.6695,5.6718,5.6725,5.6731,5.6739,5.6788,5.6799,5.6677,5.6677,5.6677,0,0,5.6048,5.609,5.6123,5.6204,5.624,5.6297,5.6277,5.6336,5.6379,5.6381,5.6456,5.6484,5.6536,5.6618,5.6655,5.6642,5.6776,5.6738,5.6742,5.6747,5.6795,5.6806,5.6816,5.6681,5.668,5.668,0,0,5.6119,5.6156,5.6218,5.6256,5.6312,5.6336,5.6351,5.6408,5.6427,5.6503,5.6507,5.6557,5.6651,5.6689,5.672,5.6809,5.6809,5.6826,5.6864,5.6911,5.6921,5.6929,5.6962,5.6974,5.6833,5.6833,5.6833,0,5.614,5.6226,5.6249,5.631,5.6346,5.6353,5.6416,5.6451,5.6521,5.6546,5.6531,5.6651,5.6686,5.6778,5.68,5.6825,5.6843,5.6819,5.6917,5.6926,5.6935,5.6967,5.6979,5.6835,5.6835,5.6835,5.6834,0,5.625,5.631,5.6353,5.6423,5.6463,5.6525,5.6557,5.6596,5.6606,5.6632,5.671,5.6753,5.6816,5.6839,5.6848,5.6933,5.6923,5.6913,5.6885,5.6948,5.6978,5.6991,5.6838,5.6837,5.6836,5.6836,0,0,5.6326,5.641,5.6425,5.6458,5.6522,5.6569,5.6631,5.6695,5.6728,5.6777,5.6831,5.6911,5.6903,5.6939,5.6953,5.6994,5.7064,5.6979,5.698,5.6994,5.7162,5.717,5.7184,5.7064,5.7066,5.7068,5.7158,0,5.6405,5.6517,5.6541,5.6638,5.6694,5.6703,5.6758,5.6803,5.6829,5.6881,5.691,5.6967,5.6951,5.6973,5.7015,5.7047,5.7098,5.704,5.7115,5.7117,5.7102,5.7199,5.7208,5.729,5.717,5.7172,5.7173,0,5.6511,5.6565,5.6668,5.6728,5.6752,5.6801,5.6862,5.6911,5.6963,5.698,5.7022,5.7032,5.7098,5.7067,5.7159,5.712,5.7152,5.7172,5.7176,5.7184,5.7149,5.7211,5.7316,5.7329,5.7192,5.719,5.7189,0,5.6558,5.6656,5.6732,5.6759,5.683,5.6864,5.6895,5.6945,5.6983,5.7036,5.7061,5.712,5.7153,5.72,5.7226,5.7201,5.7317,5.7288,5.7333,5.7332,5.7357,5.7355,5.747,5.7376,5.7375,5.7375,5.7375,0,5.6644,5.6708,5.6754,5.68,5.6872,5.6899,5.6969,5.6999,5.7045,5.7097,5.7108,5.7157,5.7188,5.7242,5.7263,5.7337,5.7351,5.7366,5.7371,5.7366,5.7365,5.7388,5.7383,5.7379,5.7378,5.7377,5.7377,0,5.6709,5.6743,5.6826,5.6886,5.6903,5.6953,5.7005,5.7051,5.7078,5.7145,5.7162,5.7205,5.7269,5.73,5.7379,5.7393,5.7478,5.7478,5.746,5.7463,5.7506,5.7502,5.7641,5.7661,5.7552,5.7553,5.7554,0,5.6762,5.6812,5.6878,5.6915,5.6947,5.7006,5.7045,5.7074,5.7114,5.7179,5.7217,5.7282,5.7335,5.7437,5.7475,5.7536,5.7539,5.7584,5.7548,5.7542,5.7542,5.7539,5.7545,5.759,5.7591,5.7592,5.7592,0,5.6854,5.6869,5.6925,5.6988,5.7035,5.7085,5.7135,5.7164,5.7201,5.7246,5.7312,5.7354,5.7436,5.7501,5.7565,5.7597,5.7602,5.7603,5.7617,5.7613,5.7601,5.761,5.7479,5.76,5.7599,5.7599,5.7598,5.7598,5.6916,5.6961,5.7016,5.7079,5.712,5.7167,5.7213,5.7248,5.7304,5.7374,5.7387,5.7458,5.7511,5.7598,5.7632,5.7688,5.7678,5.7698,5.7703,5.7708,5.7711,5.7592,5.77,5.77,5.7699,5.7699,5.7699,0,5.7009,5.7045,5.7103,5.7174,5.7224,5.7225,5.7281,5.7322,5.7385,5.7434,5.7488,5.7565,5.7629,5.7673,5.7738,5.7774,5.7778,5.779,5.7788,5.7796,5.7715,5.7698,5.7786,5.7786,5.7786,5.7786,5.7786,5.7786,5.7064,5.7141,5.7163,5.7261,5.7297,5.7368,5.74,5.7443,5.7483,5.757,5.7623,5.7652,5.77,5.7769,5.7827,5.7839,5.7862,5.7875,5.7886,5.781,5.7801,5.7793,5.7776,5.788,5.788,5.7963,5.7963,5.7964]}]]